Weather WX

World > North America > United States > Ohio

Ottawa Hills, Ohio Regional Weather

Lat: 41.67N, Lon: 83.64W
Wx Zone: OHZ003
Feedback

Ottawa Hills, OH Regional Weather

Expires:201906180400;;660224
ASUS41 KCLE 180312
RWRCLE
OHIO REGIONAL WEATHER ROUNDUP
NATIONAL WEATHER SERVICE WILMINGTON, OH
1100 PM EDT MON JUN 17 2019

NOTE: "FAIR" INDICATES FEW OR NO CLOUDS BELOW 12,000 FEET WITH NO
SIGNIFICANT WEATHER AND/OR OBSTRUCTIONS TO VISIBILITY.


OHZ001>008-015>018-024>027-034-035-043-044-180400-
   NORTHWEST OHIO
  
CITY           SKY/WX    TMP DP  RH WIND       PRES   REMARKS
DEFIANCE       FAIR      67  60  78 NE5       29.97S                  
FINDLAY        FAIR      68  64  87 NE3       29.96S                  
TOLEDO EXPRESS FAIR      65  59  81 NE5       29.97F                  
TOLEDO EXEC    FAIR      65  61  87 N3        29.98F                  
LIMA           CLOUDY    68  66  93 NE3       29.96R FOG              
$$
 

SKY/WX - Weather  TMP - Temperature  DP - Dew Point  RH - Relative Humidity
WIND - Wind Direction/Speed PRES - Barometric Pressure VSB - Visibility
WCI - Wind Chill Index E13G22 Wind - East Wind 13 mph/Gusts of 22 mph